Tracking 29489 objects as of 9-Sep-2024
HD Live streaming from Space Station
objects crossing your sky now

DELTA 1 R/B

Track DELTA 1 R/B now!
10-day predictions


NORAD ID: 7616
Int'l Code: 1975-004B
Perigee: 746.7 km
Apogee: 1,015.9 km
Inclination: 97.7 °
Period: 102.4 minutes
Semi major axis: 7252 km
RCS: 5.2306 m2 (large)
Launch date: January 22, 1975
Source: United States (US)
Launch site: AIR FORCE WESTERN TEST RANGE (AFWTR)

Note: This is a ROCKET BODY
Your satellite tracking list
Your tracking list is empty




NASA's NSSDC Master Catalog

Two Line Element Set (TLE):
1 07616U 75004B   24252.91900173  .00000860  00000-0  46997-3 0  9993
2 07616  97.7470  28.2095 0185607 218.1812 140.6092 14.05696845529581
Source of the keplerian elements: AFSPC